Back to catalog

COSMOS 2571

AliveMilitaryLEO
NORAD 58172·PAYLOAD·🇷🇺 Russia

Launched Oct 27, 2023 from Plesetsk Cosmodrome

Loading…

Next Passes (next 24 hours)

TLE

FreshSource: Space-Track

Epoch: Sep 14, 2026, 04:44 UTC

1 58172U 23165C   26257.19737299 -.00000016  00000-0  42106-4 0  9994
2 58172  67.1482  70.8094 0019701 264.5825  95.3013 13.97339803146795

Track COSMOS 2571 in real time with AllMySat

Download on the App Store